Probability
0 0 0 0 0 0 0 1 2 1 0 1 2 1 2 3 4 9 18 22 27 37 44 45 44 44 48 53 54 52 52 50 44 36 30 27 24 22 20 23 27 26 20 18
0 0 0 0 0 0 0 1 2 1 0 1 2 2 2 2 3 8 17 24 28 36 47 52 52 52 56 59 59 56 55 52 45 39 34 30 28 25 23 25 29 27 21 20
0 0 0 0 0 0 0 1 1 0 0 0 1 1 2 3 2 6 15 24 28 34 47 59 63 61 61 64 63 59 58 55 50 44 38 34 31 27 25 27 28 25 20 18
0 0 0 0 0 0 0 0 0 0 0 0 0 1 3 4 3 5 12 20 25 31 43 59 68 66 62 63 63 62 62 60 57 50 42 37 33 29 27 26 25 22 17 15
0 0 0 0 0 0 0 0 0 0 0 0 0 1 3 5 3 3 7 13 20 28 39 54 65 67 64 61 63 66 68 67 61 53 44 39 36 32 28 25 24 22 18 16
0 0 0 0 0 0 0 0 0 0 0 0 0 1 2 3 2 1 3 8 16 26 37 48 59 66 65 62 63 68 73 72 64 53 43 38 37 34 29 26 24 23 20 19
0 0 0 0 0 0 0 0 0 0 0 0 0 1 1 1 0 1 3 8 15 25 36 47 57 63 64 63 66 72 75 74 66 53 43 39 36 32 28 26 24 22 20 19
0 0 0 0 0 0 0 0 0 0 0 0 1 1 1 0 1 2 6 11 15 23 35 46 54 58 59 61 66 71 73 71 63 52 44 40 36 29 26 26 23 20 19 18
0 0 0 0 0 0 0 0 0 0 0 1 1 0 1 1 2 4 8 13 17 23 30 39 47 50 51 54 58 63 65 62 56 49 43 40 35 28 23 24 24 21 19 17
0 0 0 0 0 0 0 0 0 0 0 0 0 0 1 2 2 4 9 15 21 23 26 33 39 43 47 50 52 55 57 57 53 48 42 38 36 29 23 23 24 25 23 20
0 0 0 0 0 0 0 0 0 0 0 0 0 1 1 2 2 4 9 16 21 25 28 33 37 40 45 50 51 52 55 56 54 48 42 39 37 32 26 25 27 29 29 29
0 0 0 0 0 0 0 0 0 0 0 0 1 2 3 3 3 7 12 15 21 27 33 38 41 42 45 49 51 54 56 56 51 46 42 39 37 35 32 31 32 34 37 39
0 0 0 0 0 0 0 0 0 0 0 0 1 3 4 5 8 13 16 17 22 29 36 43 46 46 49 52 55 59 60 56 51 46 42 38 38 39 38 36 36 38 41 44
0 0 0 0 0 0 0 0 0 0 0 0 1 5 7 8 13 19 21 22 24 29 37 46 48 50 54 58 60 62 61 57 54 49 44 41 43 43 41 38 37 39 43 45
0 0 0 0 0 1 1 0 0 0 0 0 2 6 10 12 16 22 26 28 28 30 36 44 47 50 55 59 60 61 60 57 56 53 49 48 50 48 44 40 40 43 45 45
0 0 0 0 0 1 1 1 0 0 0 0 2 7 12 14 18 24 29 33 34 33 35 41 45 49 55 56 56 58 58 57 56 54 52 52 54 53 50 47 47 48 47 45
1 2 1 0 0 0 0 1 1 1 2 2 5 10 13 17 23 29 33 36 38 36 36 39 41 47 53 55 52 52 54 56 56 53 52 52 53 54 53 52 51 50 48 46
3 4 2 0 0 0 0 1 2 2 4 7 10 13 15 21 29 34 36 39 42 42 40 39 38 43 49 51 47 45 48 52 54 52 51 51 51 52 52 50 49 49 47 45
4 4 2 0 0 0 1 2 4 5 8 13 16 17 18 24 31 36 40 45 48 47 43 39 36 39 47 49 46 44 46 50 50 50 51 51 50 50 49 47 47 46 43 40
3 3 2 0 0 1 3 4 4 6 12 21 25 25 26 30 36 40 43 49 50 47 42 40 37 40 46 50 49 47 47 48 48 47 49 50 49 47 46 45 44 42 38 34
1 1 1 0 1 4 6 8 10 14 23 30 34 35 38 41 43 44 46 50 50 45 41 40 41 43 45 45 47 48 47 47 47 47 47 47 46 43 42 42 41 38 34 32
1 2 3 3 4 10 16 19 23 31 35 36 36 38 41 42 42 43 46 48 47 43 41 40 42 43 40 38 42 44 44 45 47 47 46 45 43 39 37 37 36 34 31 28
5 7 8 9 12 18 24 28 33 37 37 34 33 33 35 36 36 39 43 44 42 42 41 38 36 36 34 33 36 40 41 44 46 45 43 42 41 38 35 33 31 28 25 23
9 11 12 15 17 19 23 26 29 29 28 28 27 27 29 31 32 36 40 41 40 41 40 36 31 30 31 32 34 36 40 44 45 43 41 40 39 35 31 27 23 19 18 18
11 12 14 16 15 15 16 18 20 22 21 22 24 25 26 28 29 32 36 38 38 38 37 34 31 30 30 32 35 36 38 43 42 39 38 38 35 29 23 17 12 10 9 10
11 13 16 16 14 12 13 14 15 17 19 20 22 25 26 25 27 30 33 35 35 35 33 32 32 31 31 33 35 35 38 41 39 35 35 35 30 23 17 10 6 4 3 3
Wind_Speed
12 12 13 14 16 16 14 14 11 8 10 10 9 9 10 10 10 11 11 12 13 14 15 14 14 14 14 12 11 10 9 8 6 5 5 4 4 3 3 4 5 5 4 4
11 16 16 15 14 15 16 14 12 6 6 6 6 9 10 9 11 11 12 12 13 14 14 15 14 14 14 13 12 11 10 10 8 6 4 4 4 3 4 3 5 6 5 4
17 12 15 15 14 14 14 13 12 8 5 7 7 10 12 11 10 10 12 13 13 14 15 16 15 14 15 14 14 12 11 10 9 7 5 4 3 3 3 4 4 5 5 5
16 14 10 13 14 13 12 12 12 10 8 8 10 10 10 11 12 12 12 12 13 13 15 16 16 15 15 15 14 11 11 10 9 8 7 7 6 5 5 4 4 5 5 5
13 13 11 13 13 13 11 8 9 9 9 10 11 11 8 9 12 13 13 12 12 12 14 15 16 15 15 15 14 12 11 10 10 9 8 7 6 5 4 4 5 5 5 5
15 11 11 12 12 11 10 7 7 8 9 13 13 11 8 7 10 11 12 12 10 10 11 12 13 12 12 13 13 13 12 11 10 10 9 8 7 5 4 4 5 5 4 5
15 13 12 11 13 13 12 9 7 9 10 11 12 12 7 6 7 8 9 10 10 9 10 10 11 13 12 12 13 12 13 12 11 11 9 8 7 6 5 5 5 5 4 4
15 14 15 13 14 12 14 14 11 8 9 8 10 10 6 7 6 5 6 7 8 9 8 9 10 11 12 13 12 12 13 12 11 11 9 8 7 6 5 6 5 5 4 4
11 14 15 14 14 14 15 15 16 13 12 8 7 8 8 7 6 7 7 7 7 7 8 8 9 10 11 12 12 12 12 12 11 11 10 8 8 7 6 5 5 4 4 4
10 8 12 14 12 15 15 14 11 11 9 9 7 8 7 11 9 8 7 7 6 6 6 7 7 7 8 9 11 12 12 12 11 10 9 9 9 8 5 4 5 5 4 3
13 8 10 13 14 15 15 15 12 9 9 9 5 2 2 7 8 8 8 6 6 6 6 6 5 6 7 8 10 10 11 11 10 10 9 7 8 7 6 5 5 4 4 4
11 8 9 12 13 13 13 14 13 9 9 8 6 1 2 6 8 8 7 6 6 6 5 6 6 5 5 7 8 9 9 10 9 8 8 7 6 7 7 7 6 5 5 4
8 7 8 10 12 14 13 13 13 11 8 8 8 4 3 5 8 8 8 7 6 5 5 5 5 4 4 5 5 7 6 7 8 8 8 7 6 6 6 6 5 5 4 4
6 8 10 10 7 11 14 15 14 13 10 10 8 6 6 5 7 7 7 7 6 5 5 5 4 4 4 4 4 5 5 6 7 6 6 6 5 5 4 4 4 3 3 4
7 10 11 11 10 8 11 14 15 14 13 11 7 6 5 5 6 7 7 6 6 5 3 5 4 4 4 4 4 3 4 4 5 6 5 5 4 4 4 4 3 3 3 4
7 8 10 12 11 11 11 13 14 15 14 13 10 7 3 1 3 5 6 6 5 4 3 4 5 4 4 4 4 3 4 4 4 5 5 4 4 4 4 3 3 3 3 3
9 8 10 10 11 12 14 12 13 12 12 12 10 5 5 4 2 4 4 5 5 4 3 4 4 4 4 3 3 3 3 4 4 4 4 4 4 3 3 3 3 3 3 3
7 7 7 10 11 14 10 10 11 11 11 10 5 4 3 4 4 4 3 4 5 5 4 4 3 4 4 3 3 2 3 4 3 3 3 3 3 3 3 3 3 3 3 3
7 7 8 9 11 11 9 8 8 9 8 7 5 4 4 4 4 4 4 5 6 5 4 4 3 3 3 3 2 2 3 3 3 3 3 3 3 4 3 3 3 3 3 3
9 8 9 10 11 10 6 5 7 8 7 3 3 3 3 4 4 3 4 5 6 5 5 4 4 4 4 3 3 2 2 3 3 2 2 3 4 4 4 3 3 3 3 3
13 13 13 13 11 7 4 5 6 8 3 1 1 2 2 2 2 5 6 7 7 6 6 5 4 4 4 3 3 2 2 3 2 3 3 4 4 4 4 4 3 4 4 4
12 12 13 12 11 7 3 4 2 2 3 2 3 3 3 4 5 7 7 6 6 5 5 4 4 4 4 4 3 3 3 2 3 3 4 4 4 4 5 5 4 4 4 4
7 5 3 3 3 1 3 3 4 3 3 3 2 2 3 4 5 6 6 6 5 4 4 4 4 4 4 3 3 3 2 2 3 4 4 5 5 4 5 4 4 3 3 3
5 3 3 2 1 0 3 4 2 3 3 3 2 3 3 5 6 6 5 4 4 4 4 3 4 4 3 3 4 3 3 3 4 5 5 5 6 6 6 5 4 4 3 2
3 2 4 4 4 1 1 2 2 2 2 2 3 4 4 4 5 5 4 4 3 3 4 3 4 4 4 3 3 3 3 3 4 5 5 6 6 7 7 8 7 6 6 4
5 3 4 4 3 2 1 1 1 1 1 2 3 3 3 3 2 4 4 3 3 3 3 3 4 4 4 3 3 3 3 3 5 5 5 5 6 6 7 8 8 14 11 13
Wind_Direction
206 223 226 221 224 242 253 256 251 223 180 190 201 208 212 188 180 180 180 176 173 174 174 168 169 167 166 163 165 169 172 164 167 174 182 188 186 183 172 167 162 171 187 178
206 225 234 236 229 237 251 259 260 243 166 186 216 227 223 204 197 190 183 179 179 176 171 169 171 172 171 169 170 173 176 173 181 180 184 187 182 192 182 178 166 179 187 184
221 223 220 236 238 235 240 246 252 245 213 210 231 237 232 212 213 198 191 185 184 181 175 172 176 179 178 176 177 181 180 177 184 178 184 190 176 203 190 178 173 184 186 193
232 238 227 224 233 233 238 243 254 247 239 235 227 243 224 208 208 204 199 193 189 186 179 176 178 181 184 180 179 179 176 177 181 180 189 192 193 200 198 180 176 183 192 196
224 225 223 229 230 231 241 246 252 256 251 257 244 249 238 214 206 202 197 197 194 185 180 178 181 182 185 181 177 178 174 177 180 188 195 197 202 201 190 178 170 181 192 202
240 222 219 228 233 232 237 233 243 251 251 243 242 250 248 229 209 202 193 187 188 180 174 175 179 173 178 180 175 178 174 179 183 189 196 199 205 201 196 183 172 188 191 201
229 227 214 221 226 215 223 215 213 218 226 236 230 233 229 220 203 200 189 179 173 174 173 172 170 170 176 180 178 177 175 182 185 190 198 198 206 206 204 200 194 200 203 203
210 217 210 210 226 213 213 220 226 227 228 229 221 229 214 197 186 168 167 163 168 171 170 171 171 170 176 181 180 177 175 181 185 191 196 196 199 207 209 208 211 209 218 215
214 217 199 203 219 228 213 224 239 257 270 261 223 206 192 176 170 169 168 170 168 165 166 170 173 174 176 177 176 178 175 179 186 192 191 195 198 207 212 200 211 216 217 221
262 229 195 192 210 230 236 223 232 246 265 265 244 206 203 164 174 177 169 167 161 158 160 159 167 167 168 171 170 175 175 180 186 190 194 196 197 202 206 212 205 213 211 219
248 245 206 191 204 217 221 229 233 241 251 258 258 249 205 153 161 166 161 158 153 153 150 143 144 152 161 165 168 171 174 176 182 189 193 198 194 198 200 211 214 209 216 212
233 243 229 205 202 227 224 228 228 234 242 259 265 275 63 140 144 149 146 137 124 118 122 125 125 138 149 156 163 165 171 175 179 182 185 196 194 195 202 209 215 209 210 213
224 245 233 214 200 209 231 227 233 237 244 247 246 183 157 135 134 132 128 117 107 104 102 102 110 122 132 144 149 156 163 166 170 175 183 189 196 196 202 207 207 210 204 203
247 239 248 235 219 207 216 227 225 230 236 238 234 186 165 157 136 124 118 117 113 97 94 99 99 106 115 113 122 143 154 160 163 167 180 185 194 194 197 202 195 193 188 188
239 237 248 264 270 248 221 220 223 226 236 243 226 206 185 164 146 130 122 116 111 103 97 105 107 107 111 112 114 123 144 146 153 159 174 179 177 176 182 188 182 178 183 192
226 255 251 254 259 252 245 225 222 228 234 240 239 224 173 120 132 119 122 125 117 108 93 99 110 116 119 117 125 130 131 139 148 160 168 163 167 169 171 179 179 171 173 172
208 236 252 249 238 239 240 236 231 231 236 242 239 226 179 167 154 116 119 127 122 113 102 94 94 94 100 105 115 131 132 135 145 157 160 151 152 155 158 172 169 164 157 152
225 235 248 249 244 242 240 236 234 232 238 245 238 207 197 155 131 116 120 126 126 123 116 104 97 98 107 109 119 130 132 129 129 135 140 133 139 145 144 140 139 138 135 134
216 225 244 251 245 244 242 236 234 230 232 230 225 209 203 174 150 137 121 118 116 112 106 105 100 95 90 90 99 112 118 122 129 136 140 140 141 138 135 135 128 126 127 130
209 217 237 249 248 244 232 239 241 232 226 218 207 190 199 202 204 143 108 99 96 97 97 89 84 83 78 62 64 88 109 107 115 129 128 125 126 129 129 123 118 116 115 116
207 212 224 241 248 249 290 274 251 227 200 50 145 134 155 146 104 94 93 87 83 79 78 74 70 76 74 65 68 81 92 91 102 109 116 119 121 124 122 120 116 113 113 110
213 216 219 233 242 246 332 278 273 62 54 60 68 76 83 93 111 106 97 89 86 88 84 77 72 70 64 59 69 81 81 85 105 112 119 118 116 124 123 117 114 117 122 120
228 237 247 251 240 79 60 72 57 45 51 46 71 103 94 108 117 107 102 95 88 87 81 80 80 79 70 64 71 80 71 84 111 113 114 113 107 91 98 108 112 114 115 119
219 220 231 253 205 72 94 97 69 38 39 21 64 95 99 120 120 106 95 87 78 75 76 79 85 83 68 61 67 67 65 80 107 114 111 106 101 89 75 66 63 64 50 81
279 235 224 223 215 218 52 72 77 56 31 35 48 78 91 106 120 114 106 96 81 68 64 68 78 79 75 74 78 75 81 102 112 114 113 108 103 99 84 69 49 60 48 35
285 283 250 231 204 181 154 100 126 177 72 64 85 89 95 105 134 124 116 105 96 86 73 68 80 82 81 76 74 71 82 100 111 115 115 115 114 111 110 103 81 55 60 57